International Skating Union - Official Site

ISU World Cup Astana
December 2-4, 2016

Draw | Lap Times | Index | World Cup

Referee: Masaru  MOROZUMI  (JPN)
Starter: Stefan  HERRMANN  (GER)
StartTime: EndTime: Air Temp: Ice Temp: Humidity:
20:20 20:53 16.2 ℃ -6.4 ℃ 38.0%
Result Team Pursuit Men
Rankings as of Dec 4 2016 4:06PM
Rank: No.: Team: Nation: Time: Behind: Points:
Total 12
1 8 Japan (59) Shota Nakamura (62) Ryosuke Tsuchiya (63) Shane Williamson JPN JPN 3:44.100.5 - 17.50 - (17.5)
1.0 - 30.99 - (13.4)
1.5 - 44.43 - (13.4)
2.0 - 57.99 - (13.5)
2.5 - 1:11.54 - (13.5)
3.0 - 1:25.33 - (13.7)
3.5 - 1:39.25 - (13.9)
4.0 - 1:52.92 - (13.6)
4.5 - 2:06.71 - (13.7)
5.0 - 2:20.63 - (13.9)
5.5 - 2:34.37 - (13.7)
6.0 - 2:48.20 - (13.8)
6.5 - 3:01.95 - (13.7)
7.0 - 3:15.86 - (13.9)
7.5 - 3:30.01 - (14.1)
8.0 - 3:44.10 - (14.0)
100
2 7 Canada (10) Ted-Jan Bloemen (9) Jordan Belchos (16) Denny Morrison CAN CAN 3:44.950.5 - 17.94 - (17.9)
1.0 - 31.40 - (13.4)
1.5 - 44.73 - (13.3)
2.0 - 58.21 - (13.4)
2.5 - 1:11.56 - (13.3)
3.0 - 1:25.04 - (13.4)
3.5 - 1:38.82 - (13.7)
4.0 - 1:52.52 - (13.7)
4.5 - 2:06.32 - (13.7)
5.0 - 2:20.35 - (14.0)
5.5 - 2:34.33 - (13.9)
6.0 - 2:48.28 - (13.9)
6.5 - 3:02.37 - (14.0)
7.0 - 3:16.61 - (14.2)
7.5 - 3:30.76 - (14.1)
8.0 - 3:44.95 - (14.1)
0.85 80
3 3 Poland (109) Konrad Niedzwiedzki (111) Jan Szymanski (105) Zbigniew Bródka POL POL 3:45.040.5 - 17.73 - (17.7)
1.0 - 31.08 - (13.3)
1.5 - 44.25 - (13.1)
2.0 - 57.76 - (13.5)
2.5 - 1:11.40 - (13.6)
3.0 - 1:25.13 - (13.7)
3.5 - 1:39.06 - (13.9)
4.0 - 1:52.72 - (13.6)
4.5 - 2:06.61 - (13.8)
5.0 - 2:20.69 - (14.0)
5.5 - 2:34.62 - (13.9)
6.0 - 2:48.61 - (13.9)
6.5 - 3:02.75 - (14.1)
7.0 - 3:16.79 - (14.0)
7.5 - 3:30.86 - (14.0)
8.0 - 3:45.04 - (14.1)
0.94 70
4 5 Korea (76) Hyong-Jun Joo (79) Min Seok Kim (81) Seung-Hoon Lee KOR KOR 3:45.100.5 - 17.97 - (17.9)
1.0 - 31.62 - (13.6)
1.5 - 45.20 - (13.5)
2.0 - 58.49 - (13.2)
2.5 - 1:11.82 - (13.3)
3.0 - 1:25.15 - (13.3)
3.5 - 1:38.95 - (13.7)
4.0 - 1:52.93 - (13.9)
4.5 - 2:07.21 - (14.2)
5.0 - 2:20.99 - (13.7)
5.5 - 2:34.80 - (13.8)
6.0 - 2:48.79 - (13.9)
6.5 - 3:02.74 - (13.9)
7.0 - 3:16.74 - (14.0)
7.5 - 3:30.78 - (14.0)
8.0 - 3:45.10 - (14.3)
1.00 60
5 4 Italy (50) Andrea Giovannini (54) Nicola Tumolero (51) Michele Malfatti ITA ITA 3:45.260.5 - 17.82 - (17.8)
1.0 - 31.35 - (13.5)
1.5 - 44.82 - (13.4)
2.0 - 58.50 - (13.6)
2.5 - 1:12.24 - (13.7)
3.0 - 1:25.76 - (13.5)
3.5 - 1:39.50 - (13.7)
4.0 - 1:53.23 - (13.7)
4.5 - 2:07.21 - (13.9)
5.0 - 2:21.00 - (13.7)
5.5 - 2:34.86 - (13.8)
6.0 - 2:48.93 - (14.0)
6.5 - 3:03.12 - (14.1)
7.0 - 3:17.30 - (14.1)
7.5 - 3:31.30 - (14.0)
8.0 - 3:45.26 - (13.9)
1.16 50
6 2 Norway (99) Sverre Lunde Pedersen (95) Sindre Henriksen (98) Simen Spieler Nilsen NOR NOR 3:45.280.5 - 17.57 - (17.5)
1.0 - 31.11 - (13.5)
1.5 - 44.80 - (13.6)
2.0 - 58.56 - (13.7)
2.5 - 1:12.45 - (13.8)
3.0 - 1:26.36 - (13.9)
3.5 - 1:40.08 - (13.7)
4.0 - 1:53.88 - (13.7)
4.5 - 2:07.85 - (13.9)
5.0 - 2:22.00 - (14.1)
5.5 - 2:35.88 - (13.8)
6.0 - 2:49.65 - (13.7)
6.5 - 3:03.41 - (13.7)
7.0 - 3:17.25 - (13.8)
7.5 - 3:31.15 - (13.9)
8.0 - 3:45.28 - (14.1)
1.18 45
7 12 New Zealand (102) Reyon Kay (101) Shane Dobbin (103) Peter Michael NZL NZL 3:47.060.5 - 18.48 - (18.4)
1.0 - 32.18 - (13.6)
1.5 - 45.74 - (13.5)
2.0 - 59.38 - (13.6)
2.5 - 1:13.18 - (13.8)
3.0 - 1:27.13 - (13.9)
3.5 - 1:40.83 - (13.7)
4.0 - 1:54.48 - (13.6)
4.5 - 2:08.10 - (13.6)
5.0 - 2:21.77 - (13.6)
5.5 - 2:35.58 - (13.8)
6.0 - 2:49.39 - (13.8)
6.5 - 3:03.30 - (13.9)
7.0 - 3:17.35 - (14.0)
7.5 - 3:32.04 - (14.6)
8.0 - 3:47.06 - (15.0)
2.96 40
8 6 Russia (126) Sergey Trofimov (115) Sergey Gryaztsov (125) Danil Sinitsyn RUS RUS 3:47.190.5 - 17.86 - (17.8)
1.0 - 31.10 - (13.2)
1.5 - 44.40 - (13.2)
2.0 - 57.85 - (13.4)
2.5 - 1:11.60 - (13.7)
3.0 - 1:25.47 - (13.8)
3.5 - 1:38.91 - (13.4)
4.0 - 1:52.46 - (13.5)
4.5 - 2:06.34 - (13.8)
5.0 - 2:20.11 - (13.7)
5.5 - 2:34.35 - (14.2)
6.0 - 2:48.73 - (14.3)
6.5 - 3:03.46 - (14.7)
7.0 - 3:17.97 - (14.5)
7.5 - 3:32.48 - (14.5)
8.0 - 3:47.19 - (14.7)
3.09 35
9 9 Germany (40) Patrick Beckert (42) Moritz Geisreiter (43) Hubert Hirschbichler GER GER 3:47.340.5 - 18.24 - (18.2)
1.0 - 31.75 - (13.5)
1.5 - 45.07 - (13.3)
2.0 - 58.75 - (13.6)
2.5 - 1:12.47 - (13.7)
3.0 - 1:26.21 - (13.7)
3.5 - 1:39.99 - (13.7)
4.0 - 1:53.85 - (13.8)
4.5 - 2:08.13 - (14.2)
5.0 - 2:22.20 - (14.0)
5.5 - 2:36.57 - (14.3)
6.0 - 2:50.58 - (14.0)
6.5 - 3:04.59 - (14.0)
7.0 - 3:18.67 - (14.0)
7.5 - 3:32.98 - (14.3)
8.0 - 3:47.34 - (14.3)
3.24 30
10 10 USA (139) Joey Mantia (137) Brian Hansen (141) Jefferey Swider-Peltz USA USA 3:48.490.5 - 17.96 - (17.9)
1.0 - 31.40 - (13.4)
1.5 - 44.78 - (13.3)
2.0 - 58.19 - (13.4)
2.5 - 1:11.99 - (13.7)
3.0 - 1:25.84 - (13.8)
3.5 - 1:39.82 - (13.9)
4.0 - 1:53.70 - (13.8)
4.5 - 2:07.72 - (14.0)
5.0 - 2:21.60 - (13.8)
5.5 - 2:35.90 - (14.3)
6.0 - 2:50.25 - (14.3)
6.5 - 3:04.77 - (14.5)
7.0 - 3:19.42 - (14.6)
7.5 - 3:34.07 - (14.6)
8.0 - 3:48.49 - (14.4)
4.39 25
11 11 China (22) Yiming Liu (24) Rehanbai Talabuhan (30) Jiafan Zhu CHN CHN 3:57.390.5 - 18.17 - (18.1)
1.0 - 32.13 - (13.9)
1.5 - 46.35 - (14.2)
2.0 - 1:00.87 - (14.5)
2.5 - 1:15.24 - (14.3)
3.0 - 1:29.64 - (14.4)
3.5 - 1:43.93 - (14.2)
4.0 - 1:58.50 - (14.5)
4.5 - 2:12.77 - (14.2)
5.0 - 2:27.49 - (14.7)
5.5 - 2:42.40 - (14.9)
6.0 - 2:57.28 - (14.8)
6.5 - 3:12.43 - (15.1)
7.0 - 3:27.32 - (14.8)
7.5 - 3:42.18 - (14.8)
8.0 - 3:57.39 - (15.2)
13.29 21
12 1 Netherlands (83) Jan Blokhuijsen (85) Evert Hoolwerf (92) Arjan Stroetinga NED NED DQ0.5 - 18.33 - (18.3)
1.0 - 31.70 - (13.3)
1.5 - 45.26 - (13.5)
2.0 - 58.95 - (13.6)
2.5 - 1:12.79 - (13.8)
3.0 - 1:26.37 - (13.5)
3.5 - 1:40.21 - (13.8)
4.0 - 1:53.76 - (13.5)
4.5 - 2:07.50 - (13.7)
5.0 - 2:53.50 - (46.0)
5.5 - 3:09.17 - (15.6)
6.0 - 3:24.29 - (15.1)
6.5 - 3:39.03 - (14.7)
7.0 - 3:54.11 - (15.0)
7.5 - 4:09.22 - (15.1)
8.0 - 4:24.66 - (15.7)
0